Flag Weather past 2 weeks in Newport, Wales, United Kingdom

Now
46 °F

Fog.


Feels Like: 41 °F
Forecast: 45 / 53 °F
Wind: 12 mph from Northeast

Location: Bristol / Lulsgate

Current Time: Nov 29, 2014 at 8:48:56 AM

Latest Report: Nov 29, 2014 at 8:20 AM


Visibility: 0 mi

Pressure: 29.80 "Hg

Humidity: 100%

Dew point: 46 °F

Location of NewportLocation

Historic Weather in Newport — Graph

°F

Newport temperature yesterday

Maximum temperature yesterday: 52 °F (at 2:50 PM)
Minimum temperature yesterday: 46 °F (at 12:20 AM)
Average temperature yesterday: 49 °F

Past Weeks' High & Low Weather Summary

 TemperatureHumidityPressure
High55 °F (Nov 14, 1:20 PM)100% (Nov 15, 5:50 AM)30.33 "Hg (Nov 15, 5:50 AM)
Low34 °F (Nov 24, 9:20 PM)66% (Nov 24, 11:20 AM)29.36 "Hg (Nov 14, 7:20 AM)
Average46 °F93%29.82 "Hg
* Reported Nov 14 7:20 AM — Nov 29 7:50 AM, Newport, Weather by CustomWeather, © 2014

Note: Actual official high and low records may vary slightly from our data, if they occured in-between our weather recording intervals... More about our weather records

Advertising

Newport weather history for previous 24 hours

 ConditionsComfort  
Time TempWeatherWind HumidityBarometerVisibility
7:50 AM
Nov 29
46 °FFog.9 mph100%29.80 "Hg0 mi
7:20 AM46 °FFog.8 mph100%29.77 "Hg0 mi
6:50 AM46 °FFog.10 mph100%29.77 "Hg0 mi
6:20 AM46 °FFog.8 mph100%29.74 "Hg0 mi
5:50 AM46 °FFog.8 mph100%29.74 "Hg0 mi
4:50 AM46 °FFog.10 mph100%29.71 "Hg1 mi
4:20 AM48 °FFog.10 mph94%29.71 "Hg0 mi
3:50 AM46 °FFog.14 mph100%29.71 "Hg1 mi
3:20 AM48 °FFog.14 mph94%29.71 "Hg1 mi
2:50 AM46 °FFog.13 mph100%29.68 "Hg1 mi
2:20 AM48 °FFog.14 mph94%29.68 "Hg2 mi
1:50 AM48 °FFog.15 mph94%29.68 "Hg2 mi
1:20 AM48 °FFog.15 mph94%29.68 "Hg2 mi
12:50 AM48 °FFog.16 mph94%29.68 "Hg2 mi
12:20 AM48 °FFog.16 mph94%29.68 "Hg2 mi
11:50 PM
Nov 28
48 °FFog.15 mph100%29.68 "Hg2 mi
11:20 PM48 °FFog.14 mph94%29.68 "Hg1 mi
10:50 PM48 °FFog.15 mph94%29.65 "Hg2 mi
10:20 PM48 °FPassing clouds.15 mph94%29.68 "Hg3 mi
9:50 PM48 °FLight rain. Passing clouds.15 mph94%29.68 "Hg6 mi
9:20 PM48 °FPassing clouds.15 mph94%29.68 "Hg6 mi
8:50 PM48 °FLight rain. Passing clouds.14 mph94%29.68 "Hg5 mi
8:20 PM48 °FPassing clouds.15 mph94%29.65 "Hg5 mi
7:50 PM50 °FPassing clouds.13 mph88%29.65 "Hg5 mi
7:20 PM50 °FPassing clouds.17 mph88%29.65 "Hg5 mi
6:50 PM50 °FPassing clouds.21 mph88%29.62 "Hg5 mi
6:20 PM50 °FPassing clouds.16 mph94%29.62 "Hg4 mi
5:50 PM50 °FPassing clouds.15 mph94%29.62 "Hg4 mi
5:20 PM50 °FPassing clouds.14 mph94%29.59 "Hg4 mi
4:50 PM50 °FPassing clouds.14 mph94%29.59 "Hg5 mi
4:20 PM50 °FPassing clouds.15 mph94%29.59 "Hg5 mi
3:50 PM50 °FPartly sunny.16 mph94%29.56 "Hg6 mi
3:20 PM50 °FPartly sunny.16 mph94%29.56 "Hg5 mi
2:50 PM52 °FPartly sunny.15 mph88%29.56 "Hg5 mi
2:20 PM50 °FPartly sunny.14 mph94%29.56 "Hg5 mi
1:50 PM50 °FPartly sunny.15 mph94%29.56 "Hg6 mi
1:20 PM50 °FPartly sunny.15 mph94%29.56 "Hg6 mi
12:50 PM50 °FPartly sunny.13 mph88%29.56 "Hg6 mi
12:20 PM50 °FPartly sunny.14 mph88%29.56 "Hg6 mi
11:50 AM48 °FPartly sunny.15 mph94%29.56 "HgN/A
11:20 AM48 °FPartly sunny.14 mph94%29.56 "Hg6 mi
10:50 AM48 °FPartly sunny.14 mph94%29.56 "HgN/A
10:20 AM48 °FPartly sunny.16 mph87%29.56 "Hg6 mi
9:50 AM48 °FPartly sunny.21 mph87%29.56 "Hg6 mi
9:20 AM48 °FPartly sunny.16 mph87%29.53 "HgN/A
8:50 AM48 °FPartly sunny.15 mph87%29.53 "HgN/A
8:20 AM48 °FPartly sunny.14 mph87%29.53 "HgN/A
Weather by CustomWeather, © 2014

See weather overviewHow to use our weather pages